Погода в Понизье

Россия / Костромская область     58°18′51″N   43°10′08″E
темп.,
°C
ветер,
м/с
пор.,
м/с
влажн.,
%
обл.,
%
осадки,
мм/ч
давл.,
гПа
погр.,
м
23 апреля, пт
пт2300:00+6ю398876 0.0 1018263
03:00+4ююв28945 0.0 1018187
06:00+5ююв3109141 0.0 1019287
09:00+11ю510675 0.0 1019681
12:00+15ю69515 0.0 10181471
15:00+16ю69476 0.0 10171887
18:00+13ю51061100 1.1 1016741
21:00+10юв41180100 2.1 1017338
24 апреля, сб
сб2400:00+7юв3118455 0.1 1016300
03:00+6юв3118597 0.1 1015288
06:00+7вюв4118779 0.0 1013335
09:00+12юв5116949 0.2 1011996
12:00+14юв6105784 1.0 10091715
15:00+14вюв695198 1.4 10072123
18:00+11вюв61166100 0.1 10061120
21:00+8вюв51280100 0.1 1005866
25 апреля, вс
вс2500:00+7вюв51080100 0.0 1003953
03:00+6в4987100 0.0 1000813
06:00+6в4891100 0.1 999888
09:00+6в2593100 1.0 998994
12:00+6з0092100 1.9 998177
15:00+1з61397100 6.8 1000532
18:00+1з71697100 3.8 1001853
21:00+1з71497100 7.4 10031045
26 апреля, пн
пн2600:00+1з71497100 1.4 1004972
03:00+2зюз6138997 1.6 1006869
06:00+1зюз5128899 0.0 1007719
09:00+4зюз5979100 0.0 1007968
12:00+6зюз696495 0.1 10081765
15:00+7зюз585956 0.3 10091637
18:00+6зюз367382 0.4 1009529
21:00+2ююз22876 0.5 100932
27 апреля, вт
вт2700:000юз22895 0.0 100928
03:00−1юз118989 0.0 100810
06:00+1зюз118493 0.0 100760
09:00+6зсз235941 0.3 1006700
12:00+8зсз3443100 0.1 10052459
15:00+8з454596 0.1 10052084
18:00+6з46626 0.1 1005896
21:00+2з26824 0.1 100691